| time (UTC) | temp F | wind direction | speed MPH | gust MPH | rain 1hr in | rain 24hr in | rain mn in | humidity % | barometer mb |
| 20260905135521 | 71 | 0 | 0.0 | 2.0 | 0.00 | 0.00 | 0.00 | 91 | 1017.5 |
| 20260905135511 | 71 | 69 | 0.0 | 0.0 | 0.00 | 0.00 | 0.00 | 90 | 1016.7 |
| 20260905135020 | 71 | 69 | 1.0 | 3.0 | 0.00 | 0.00 | 0.00 | 91 | 1017.4 |
| 20260905134538 | 70 | 69 | 0.0 | 3.0 | 0.00 | 0.00 | 0.00 | 91 | 1017.2 |
| 20260905134511 | 71 | 69 | 2.0 | 0.0 | 0.00 | 0.00 | 0.00 | 91 | 1016.4 |
| 20260905134024 | 70 | 69 | 1.0 | 3.0 | 0.00 | 0.00 | 0.00 | 92 | 1017.1 |
| 20260905134010 | 71 | 69 | 2.0 | 0.0 | 0.00 | 0.00 | 0.00 | 91 | 1016.4 |
| 20260905133522 | 70 | 69 | 1.0 | 5.0 | 0.00 | 0.00 | 0.00 | 92 | 1016.8 |
| 20260905133511 | 71 | 69 | 2.0 | 0.0 | 0.00 | 0.00 | 0.00 | 91 | 1016.2 |
| 20260905133043 | 70 | 70 | 2.0 | 5.0 | 0.00 | 0.00 | 0.00 | 91 | 1016.8 |
| 20260905132524 | 70 | 71 | 2.0 | 7.0 | 0.00 | 0.00 | 0.00 | 91 | 1016.6 |
| 20260905132031 | 70 | 69 | 2.0 | 7.0 | 0.00 | 0.00 | 0.00 | 91 | 1016.4 |
| 20260905132011 | 71 | 69 | 4.0 | 1.0 | 0.00 | 0.00 | 0.00 | 91 | 1015.7 |
| 20260905131548 | 70 | 71 | 3.0 | 8.0 | 0.00 | 0.00 | 0.00 | 91 | 1016.4 |
| 20260905131511 | 71 | 71 | 4.0 | 1.0 | 0.00 | 0.00 | 0.00 | 91 | 1015.6 |
| 20260905131026 | 70 | 70 | 4.0 | 9.0 | 0.00 | 0.00 | 0.00 | 91 | 1016.3 |
| 20260905131011 | 70 | 67 | 2.0 | 1.0 | 0.00 | 0.00 | 0.00 | 91 | 1015.6 |
| 20260905130520 | 70 | 74 | 4.0 | 9.0 | 0.00 | 0.00 | 0.00 | 91 | 1016.1 |
| 20260905130511 | 70 | 72 | 3.0 | 1.0 | 0.00 | 0.00 | 0.00 | 91 | 1015.3 |
| 20260905130042 | 70 | 68 | 4.0 | 9.0 | 0.00 | 0.00 | 0.00 | 91 | 1016.0 |
| 20260905130011 | 70 | 67 | 4.0 | 1.0 | 0.00 | 0.00 | 0.00 | 91 | 1015.3 |
| 20260905125524 | 70 | 63 | 4.0 | 9.0 | 0.00 | 0.00 | 0.00 | 92 | 1016.1 |
| 20260905125020 | 70 | 70 | 4.0 | 9.0 | 0.00 | 0.00 | 0.00 | 91 | 1015.9 |
| 20260905125011 | 70 | 70 | 7.0 | 1.0 | 0.00 | 0.00 | 0.00 | 91 | 1015.1 |
| 20260905124541 | 70 | 66 | 3.0 | 7.0 | 0.00 | 0.00 | 0.00 | 92 | 1015.9 |
| 20260905124511 | 70 | 68 | 4.0 | 1.0 | 0.00 | 0.00 | 0.00 | 91 | 1015.2 |
| 20260905124025 | 70 | 70 | 2.0 | 8.0 | 0.00 | 0.00 | 0.00 | 92 | 1016.0 |
| 20260905124011 | 70 | 70 | 3.0 | 1.0 | 0.00 | 0.00 | 0.00 | 91 | 1015.2 |
| 20260905123523 | 70 | 75 | 3.0 | 8.0 | 0.00 | 0.00 | 0.00 | 92 | 1016.0 |
| 20260905123511 | 70 | 75 | 2.0 | 1.0 | 0.00 | 0.00 | 0.00 | 91 | 1015.3 |
| 20260905123046 | 70 | 63 | 3.0 | 7.0 | 0.00 | 0.00 | 0.00 | 92 | 1015.9 |
| 20260905123011 | 70 | 64 | 2.0 | 1.0 | 0.00 | 0.00 | 0.00 | 91 | 1015.2 |
| 20260905122519 | 70 | 65 | 1.0 | 5.0 | 0.00 | 0.00 | 0.00 | 92 | 1016.0 |
| 20260905122511 | 70 | 67 | 3.0 | 0.0 | 0.00 | 0.00 | 0.00 | 91 | 1015.2 |
| 20260905122019 | 70 | 63 | 1.0 | 5.0 | 0.00 | 0.00 | 0.00 | 92 | 1016.0 |
| 20260905122011 | 70 | 62 | 3.0 | 0.0 | 0.00 | 0.00 | 0.00 | 91 | 1015.3 |
| 20260905121542 | 70 | 65 | 2.0 | 7.0 | 0.00 | 0.00 | 0.00 | 92 | 1015.9 |
| 20260905121511 | 70 | 65 | 2.0 | 1.0 | 0.00 | 0.00 | 0.00 | 91 | 1015.2 |
| 20260905121023 | 70 | 70 | 2.0 | 8.0 | 0.00 | 0.00 | 0.00 | 92 | 1015.9 |
| 20260905121011 | 70 | 72 | 4.0 | 1.0 | 0.00 | 0.00 | 0.00 | 91 | 1015.2 |
| 20260905120519 | 70 | 70 | 4.0 | 8.0 | 0.00 | 0.00 | 0.00 | 92 | 1015.9 |
| 20260905120510 | 70 | 69 | 3.0 | 1.0 | 0.00 | 0.00 | 0.00 | 91 | 1015.2 |
| 20260905120041 | 70 | 70 | 2.0 | 7.0 | 0.00 | 0.00 | 0.00 | 92 | 1015.9 |
| 20260905120011 | 70 | 70 | 1.0 | 0.0 | 0.00 | 0.00 | 0.00 | 91 | 1015.2 |
| 20260905115523 | 69 | 66 | 2.0 | 7.0 | 0.00 | 0.00 | 0.00 | 92 | 1016.0 |
| 20260905115511 | 70 | 66 | 2.0 | 1.0 | 0.00 | 0.00 | 0.00 | 91 | 1015.2 |
| 20260905115024 | 69 | 76 | 4.0 | 7.0 | 0.00 | 0.00 | 0.00 | 92 | 1015.8 |
| 20260905115011 | 70 | 76 | 3.0 | 1.0 | 0.00 | 0.00 | 0.00 | 91 | 1015.2 |
| 20260905114545 | 69 | 80 | 2.0 | 6.0 | 0.00 | 0.00 | 0.00 | 92 | 1015.9 |
| 20260905114511 | 70 | 79 | 2.0 | 1.0 | 0.00 | 0.00 | 0.00 | 91 | 1015.1 |
| 20260905114023 | 69 | 72 | 2.0 | 5.0 | 0.00 | 0.00 | 0.00 | 92 | 1015.8 |
| 20260905114010 | 70 | 69 | 3.0 | 0.0 | 0.00 | 0.00 | 0.00 | 91 | 1015.1 |
| 20260905113526 | 69 | 72 | 1.0 | 4.0 | 0.00 | 0.00 | 0.00 | 92 | 1015.9 |
| 20260905113511 | 70 | 72 | 2.0 | 0.0 | 0.00 | 0.00 | 0.00 | 91 | 1015.1 |
| 20260905113042 | 69 | 70 | 1.0 | 4.0 | 0.00 | 0.00 | 0.00 | 92 | 1015.8 |
| 20260905112521 | 69 | 0 | 1.0 | 6.0 | 0.00 | 0.00 | 0.00 | 92 | 1015.8 |
| 20260905112511 | 70 | 70 | 0.0 | 1.0 | 0.00 | 0.00 | 0.00 | 91 | 1015.0 |
| 20260905112054 | 69 | 71 | 2.0 | 7.0 | 0.00 | 0.00 | 0.00 | 92 | 1015.7 |
| 20260905112011 | 70 | 70 | 1.0 | 1.0 | 0.00 | 0.00 | 0.00 | 91 | 1014.9 |
| 20260905111600 | 69 | 74 | 3.0 | 8.0 | 0.00 | 0.00 | 0.00 | 92 | 1015.5 |
| 20260905111511 | 70 | 76 | 3.0 | 1.0 | 0.00 | 0.00 | 0.00 | 92 | 1014.8 |
| 20260905111020 | 69 | 66 | 4.0 | 8.0 | 0.00 | 0.00 | 0.00 | 92 | 1015.4 |
| 20260905111011 | 70 | 65 | 4.0 | 1.0 | 0.00 | 0.00 | 0.00 | 91 | 1014.6 |
| 20260905110520 | 69 | 64 | 4.0 | 7.0 | 0.00 | 0.00 | 0.00 | 92 | 1015.5 |
| 20260905110511 | 70 | 66 | 5.0 | 1.0 | 0.00 | 0.00 | 0.00 | 91 | 1014.6 |
| 20260905110038 | 69 | 68 | 2.0 | 5.0 | 0.00 | 0.00 | 0.00 | 92 | 1015.6 |
| 20260905110011 | 70 | 69 | 3.0 | 0.0 | 0.00 | 0.00 | 0.00 | 91 | 1014.9 |
| 20260905105521 | 69 | 65 | 2.0 | 5.0 | 0.00 | 0.00 | 0.00 | 92 | 1015.5 |
| 20260905105511 | 70 | 65 | 5.0 | 0.0 | 0.00 | 0.00 | 0.00 | 91 | 1014.8 |
| 20260905105017 | 69 | 12 | 0.0 | 3.0 | 0.00 | 0.00 | 0.00 | 91 | 1015.5 |
| 20260905105011 | 70 | 12 | 2.0 | 0.0 | 0.00 | 0.00 | 0.00 | 91 | 1014.8 |
| 20260905104544 | 69 | 5 | 0.0 | 2.0 | 0.00 | 0.00 | 0.00 | 91 | 1015.5 |
| 20260905104511 | 70 | 5 | 1.0 | 0.0 | 0.00 | 0.00 | 0.00 | 91 | 1014.7 |
| 20260905104023 | 69 | 0 | 0.0 | 2.0 | 0.00 | 0.00 | 0.00 | 91 | 1015.6 |
| 20260905104011 | 70 | 5 | 0.0 | 0.0 | 0.00 | 0.00 | 0.00 | 91 | 1014.8 |
| 20260905103524 | 69 | 0 | 0.0 | 2.0 | 0.00 | 0.00 | 0.00 | 91 | 1015.7 |
| 20260905103511 | 70 | 5 | 0.0 | 0.0 | 0.00 | 0.00 | 0.00 | 91 | 1014.8 |
| 20260905103043 | 69 | 5 | 0.0 | 2.0 | 0.00 | 0.00 | 0.00 | 91 | 1015.7 |
| 20260905103011 | 70 | 5 | 2.0 | 0.0 | 0.00 | 0.00 | 0.00 | 91 | 1014.9 |
| 20260905102519 | 69 | 0 | 0.0 | 4.0 | 0.00 | 0.00 | 0.00 | 91 | 1015.3 |
| 20260905102511 | 70 | 5 | 0.0 | 0.0 | 0.00 | 0.00 | 0.00 | 91 | 1014.5 |
| 20260905102023 | 69 | 4 | 0.0 | 5.0 | 0.00 | 0.00 | 0.00 | 91 | 1015.1 |
| 20260905102011 | 70 | 4 | 2.0 | 0.0 | 0.00 | 0.00 | 0.00 | 91 | 1014.2 |
| 20260905101545 | 69 | 0 | 1.0 | 5.0 | 0.00 | 0.00 | 0.00 | 91 | 1015.0 |
| 20260905101511 | 70 | 18 | 0.0 | 0.0 | 0.00 | 0.00 | 0.00 | 91 | 1014.1 |
| 20260905101019 | 69 | 58 | 1.0 | 3.0 | 0.00 | 0.00 | 0.00 | 91 | 1014.9 |
| 20260905101011 | 70 | 58 | 2.0 | 0.0 | 0.00 | 0.00 | 0.00 | 91 | 1014.0 |
| 20260905100520 | 69 | 0 | 0.0 | 3.0 | 0.00 | 0.00 | 0.00 | 91 | 1015.0 |
| 20260905100511 | 70 | 64 | 0.0 | 0.0 | 0.00 | 0.00 | 0.00 | 91 | 1014.1 |
| 20260905100057 | 69 | 63 | 1.0 | 5.0 | 0.00 | 0.00 | 0.00 | 91 | 1014.8 |
| 20260905095519 | 69 | 56 | 1.0 | 7.0 | 0.00 | 0.00 | 0.00 | 91 | 1014.7 |
| 20260905095020 | 69 | 51 | 3.0 | 7.0 | 0.00 | 0.00 | 0.00 | 92 | 1014.7 |
| 20260905095011 | 69 | 51 | 2.0 | 1.0 | 0.00 | 0.00 | 0.00 | 91 | 1013.9 |
| 20260905094539 | 69 | 68 | 2.0 | 7.0 | 0.00 | 0.00 | 0.00 | 91 | 1014.7 |
| 20260905094511 | 69 | 68 | 3.0 | 1.0 | 0.00 | 0.00 | 0.00 | 91 | 1013.8 |
| 20260905094021 | 69 | 83 | 2.0 | 7.0 | 0.00 | 0.00 | 0.00 | 91 | 1014.8 |
| 20260905094011 | 69 | 83 | 4.0 | 1.0 | 0.00 | 0.00 | 0.00 | 91 | 1013.9 |
| 20260905093520 | 69 | 68 | 2.0 | 7.0 | 0.00 | 0.00 | 0.00 | 91 | 1014.8 |
| 20260905093511 | 69 | 67 | 4.0 | 1.0 | 0.00 | 0.00 | 0.00 | 91 | 1013.9 |
| 20260905093043 | 69 | 64 | 3.0 | 7.0 | 0.00 | 0.00 | 0.00 | 91 | 1014.9 |
| 20260905092519 | 69 | 0 | 2.0 | 8.0 | 0.00 | 0.00 | 0.00 | 91 | 1014.9 |
| 20260905092020 | 69 | 74 | 2.0 | 8.0 | 0.00 | 0.00 | 0.00 | 91 | 1015.0 |
| 20260905092011 | 69 | 76 | 4.0 | 1.0 | 0.00 | 0.00 | 0.00 | 91 | 1014.1 |
| 20260905091540 | 69 | 60 | 2.0 | 8.0 | 0.00 | 0.00 | 0.00 | 91 | 1015.1 |
| 20260905091511 | 69 | 58 | 2.0 | 1.0 | 0.00 | 0.00 | 0.00 | 91 | 1014.2 |
| 20260905091020 | 69 | 69 | 3.0 | 7.0 | 0.00 | 0.00 | 0.00 | 91 | 1015.1 |
| 20260905091011 | 69 | 69 | 2.0 | 1.0 | 0.00 | 0.00 | 0.00 | 90 | 1014.3 |
| 20260905090520 | 69 | 75 | 4.0 | 8.0 | 0.00 | 0.00 | 0.00 | 91 | 1015.2 |
| 20260905090511 | 69 | 75 | 3.0 | 1.0 | 0.00 | 0.00 | 0.00 | 90 | 1014.3 |
| 20260905090038 | 69 | 64 | 3.0 | 8.0 | 0.00 | 0.00 | 0.00 | 91 | 1015.3 |
| 20260905090011 | 69 | 64 | 3.0 | 1.0 | 0.00 | 0.00 | 0.00 | 90 | 1014.5 |
| 20260905085518 | 69 | 80 | 3.0 | 11.0 | 0.00 | 0.00 | 0.00 | 91 | 1015.4 |
| 20260905085511 | 69 | 80 | 3.0 | 1.0 | 0.00 | 0.00 | 0.00 | 90 | 1014.5 |
| 20260905085024 | 69 | 80 | 4.0 | 11.0 | 0.00 | 0.00 | 0.00 | 91 | 1015.3 |
| 20260905085011 | 69 | 67 | 7.0 | 1.0 | 0.00 | 0.00 | 0.00 | 90 | 1014.4 |
| 20260905084544 | 69 | 71 | 4.0 | 11.0 | 0.00 | 0.00 | 0.00 | 91 | 1015.4 |
| 20260905084511 | 69 | 69 | 5.0 | 1.0 | 0.00 | 0.00 | 0.00 | 90 | 1014.5 |
| 20260905084023 | 69 | 67 | 2.0 | 8.0 | 0.00 | 0.00 | 0.00 | 90 | 1015.5 |
| 20260905084011 | 69 | 67 | 4.0 | 1.0 | 0.00 | 0.00 | 0.00 | 90 | 1014.7 |
| 20260905083524 | 69 | 80 | 4.0 | 8.0 | 0.00 | 0.00 | 0.00 | 90 | 1015.6 |
| 20260905083511 | 69 | 78 | 5.0 | 1.0 | 0.00 | 0.00 | 0.00 | 90 | 1014.7 |
| 20260905083042 | 69 | 72 | 3.0 | 7.0 | 0.00 | 0.00 | 0.00 | 90 | 1015.6 |
| 20260905083011 | 69 | 72 | 2.0 | 1.0 | 0.00 | 0.00 | 0.00 | 90 | 1014.7 |
| 20260905082518 | 69 | 70 | 3.0 | 8.0 | 0.00 | 0.00 | 0.00 | 90 | 1015.6 |
| 20260905082511 | 69 | 70 | 4.0 | 1.0 | 0.00 | 0.00 | 0.00 | 90 | 1014.7 |
| 20260905082021 | 69 | 78 | 3.0 | 8.0 | 0.00 | 0.00 | 0.00 | 90 | 1015.6 |
| 20260905082011 | 69 | 76 | 3.0 | 1.0 | 0.00 | 0.00 | 0.00 | 90 | 1014.6 |
| 20260905081538 | 69 | 67 | 4.0 | 8.0 | 0.00 | 0.00 | 0.00 | 90 | 1015.4 |
| 20260905081511 | 69 | 68 | 2.0 | 1.0 | 0.00 | 0.00 | 0.00 | 90 | 1014.5 |
| 20260905081018 | 69 | 76 | 3.0 | 7.0 | 0.00 | 0.00 | 0.00 | 90 | 1015.5 |
| 20260905081011 | 69 | 72 | 7.0 | 1.0 | 0.00 | 0.00 | 0.00 | 90 | 1014.6 |
| 20260905080518 | 69 | 68 | 2.0 | 7.0 | 0.00 | 0.00 | 0.00 | 90 | 1015.5 |
| 20260905080511 | 69 | 68 | 3.0 | 1.0 | 0.00 | 0.00 | 0.00 | 90 | 1014.6 |
| 20260905080050 | 69 | 48 | 1.0 | 5.0 | 0.00 | 0.00 | 0.00 | 90 | 1015.5 |
| 20260905075528 | 69 | 67 | 2.0 | 5.0 | 0.00 | 0.00 | 0.00 | 90 | 1015.3 |
| 20260905075511 | 69 | 67 | 1.0 | 0.0 | 0.00 | 0.00 | 0.00 | 90 | 1014.6 |
| 20260905075020 | 69 | 30 | 2.0 | 8.0 | 0.00 | 0.00 | 0.00 | 90 | 1015.5 |
| 20260905075011 | 69 | 30 | 3.0 | 0.0 | 0.00 | 0.00 | 0.00 | 90 | 1014.6 |
| 20260905074544 | 69 | 66 | 3.0 | 8.0 | 0.00 | 0.00 | 0.00 | 90 | 1015.5 |
| 20260905074511 | 69 | 66 | 5.0 | 1.0 | 0.00 | 0.00 | 0.00 | 90 | 1014.6 |
| 20260905074028 | 69 | 30 | 3.0 | 8.0 | 0.00 | 0.00 | 0.00 | 90 | 1015.6 |
| 20260905074011 | 69 | 35 | 4.0 | 1.0 | 0.00 | 0.00 | 0.00 | 89 | 1014.6 |
| 20260905073521 | 69 | 0 | 1.0 | 6.0 | 0.00 | 0.00 | 0.00 | 90 | 1015.5 |
| 20260905073511 | 69 | 82 | 1.0 | 1.0 | 0.00 | 0.00 | 0.00 | 89 | 1014.7 |
| 20260905073040 | 69 | 51 | 2.0 | 7.0 | 0.00 | 0.00 | 0.00 | 90 | 1015.6 |
| 20260905073011 | 69 | 49 | 2.0 | 1.0 | 0.00 | 0.00 | 0.00 | 90 | 1014.7 |
| 20260905072521 | 69 | 78 | 2.0 | 10.0 | 0.00 | 0.00 | 0.00 | 90 | 1015.6 |
| 20260905072511 | 69 | 78 | 2.0 | 1.0 | 0.00 | 0.00 | 0.00 | 90 | 1014.7 |
| 20260905072021 | 69 | 63 | 3.0 | 10.0 | 0.00 | 0.00 | 0.00 | 90 | 1015.6 |
| 20260905072011 | 69 | 64 | 2.0 | 1.0 | 0.00 | 0.00 | 0.00 | 89 | 1014.7 |
| 20260905071539 | 69 | 49 | 3.0 | 10.0 | 0.00 | 0.00 | 0.00 | 90 | 1015.5 |
| 20260905071020 | 69 | 13 | 3.0 | 9.0 | 0.00 | 0.00 | 0.00 | 90 | 1015.7 |
| 20260905071011 | 69 | 10 | 2.0 | 1.0 | 0.00 | 0.00 | 0.00 | 89 | 1014.8 |
| 20260905070520 | 69 | 18 | 1.0 | 9.0 | 0.00 | 0.00 | 0.00 | 90 | 1015.7 |
| 20260905070511 | 69 | 18 | 2.0 | 1.0 | 0.00 | 0.00 | 0.00 | 89 | 1014.8 |
| 20260905070039 | 68 | 13 | 2.0 | 6.0 | 0.00 | 0.00 | 0.00 | 89 | 1015.7 |
| 20260905070011 | 69 | 28 | 2.0 | 1.0 | 0.00 | 0.00 | 0.00 | 89 | 1014.8 |
| 20260905065519 | 69 | 12 | 2.0 | 6.0 | 0.00 | 0.00 | 0.00 | 89 | 1015.7 |
| 20260905065511 | 69 | 12 | 1.0 | 1.0 | 0.00 | 0.00 | 0.00 | 89 | 1014.7 |
| 20260905065027 | 69 | 34 | 2.0 | 6.0 | 0.00 | 0.00 | 0.00 | 89 | 1015.7 |
| 20260905065011 | 69 | 331 | 3.0 | 1.0 | 0.00 | 0.00 | 0.00 | 89 | 1014.8 |
| 20260905064545 | 69 | 298 | 1.0 | 6.0 | 0.00 | 0.00 | 0.00 | 89 | 1015.8 |
| 20260905064511 | 69 | 298 | 4.0 | 1.0 | 0.00 | 0.00 | 0.00 | 88 | 1014.9 |
| 20260905064023 | 69 | 0 | 0.0 | 5.0 | 0.00 | 0.00 | 0.00 | 89 | 1015.7 |
| 20260905064011 | 69 | 324 | 0.0 | 0.0 | 0.00 | 0.00 | 0.00 | 88 | 1014.8 |
| 20260905063518 | 69 | 19 | 1.0 | 7.0 | 0.00 | 0.00 | 0.00 | 89 | 1015.7 |
| 20260905063511 | 69 | 19 | 1.0 | 0.0 | 0.00 | 0.00 | 0.00 | 88 | 1014.7 |
| 20260905063053 | 69 | 9 | 0.0 | 7.0 | 0.00 | 0.00 | 0.00 | 88 | 1015.7 |
| 20260905063011 | 69 | 9 | 4.0 | 1.0 | 0.00 | 0.00 | 0.00 | 88 | 1014.7 |
| 20260905062525 | 69 | 3 | 1.0 | 7.0 | 0.00 | 0.00 | 0.00 | 88 | 1015.6 |
| 20260905062511 | 70 | 3 | 1.0 | 1.0 | 0.00 | 0.00 | 0.00 | 88 | 1014.6 |
| 20260905062020 | 69 | 1 | 1.0 | 5.0 | 0.00 | 0.00 | 0.00 | 88 | 1015.5 |
| 20260905062011 | 70 | 330 | 1.0 | 0.0 | 0.00 | 0.00 | 0.00 | 88 | 1014.5 |
| 20260905061547 | 69 | 340 | 1.0 | 5.0 | 0.00 | 0.00 | 0.00 | 88 | 1015.3 |
| 20260905061511 | 70 | 340 | 1.0 | 0.0 | 0.00 | 0.00 | 0.00 | 88 | 1014.4 |
| 20260905061020 | 69 | 67 | 1.0 | 5.0 | 0.00 | 0.00 | 0.00 | 89 | 1015.1 |
| 20260905061011 | 70 | 38 | 3.0 | 0.0 | 0.00 | 0.00 | 0.00 | 88 | 1014.3 |
| 20260905060520 | 70 | 69 | 1.0 | 4.0 | 0.00 | 0.00 | 0.00 | 88 | 1015.1 |
| 20260905060043 | 70 | 61 | 1.0 | 4.0 | 0.00 | 0.00 | 0.00 | 88 | 1015.0 |
| 20260905060011 | 70 | 61 | 1.0 | 0.0 | 0.00 | 0.00 | 0.00 | 88 | 1014.2 |
| 20260905055525 | 70 | 16 | 0.0 | 6.0 | 0.00 | 0.00 | 0.00 | 88 | 1014.9 |
| 20260905055511 | 70 | 16 | 1.0 | 0.0 | 0.00 | 0.00 | 0.00 | 88 | 1014.1 |
| 20260905055025 | 70 | 46 | 0.0 | 6.0 | 0.00 | 0.00 | 0.00 | 88 | 1014.8 |
| 20260905054544 | 70 | 44 | 1.0 | 4.0 | 0.00 | 0.00 | 0.00 | 88 | 1014.8 |
| 20260905054511 | 70 | 44 | 2.0 | 0.0 | 0.00 | 0.00 | 0.00 | 87 | 1014.0 |
| 20260905054020 | 70 | 0 | 1.0 | 6.0 | 0.00 | 0.00 | 0.00 | 87 | 1014.9 |
| 20260905054011 | 71 | 7 | 1.0 | 1.0 | 0.00 | 0.00 | 0.00 | 87 | 1014.0 |
| 20260905053519 | 70 | 342 | 2.0 | 6.0 | 0.00 | 0.00 | 0.00 | 87 | 1014.9 |
| 20260905053511 | 71 | 345 | 2.0 | 1.0 | 0.00 | 0.00 | 0.00 | 87 | 1014.1 |
| 20260905053038 | 70 | 84 | 1.0 | 6.0 | 0.00 | 0.00 | 0.00 | 87 | 1014.8 |
| 20260905053011 | 71 | 84 | 0.0 | 1.0 | 0.00 | 0.00 | 0.00 | 87 | 1014.0 |
| 20260905052522 | 71 | 22 | 1.0 | 8.0 | 0.00 | 0.00 | 0.00 | 87 | 1014.9 |
| 20260905052511 | 71 | 68 | 0.0 | 1.0 | 0.00 | 0.00 | 0.00 | 87 | 1014.0 |
| 20260905052030 | 71 | 66 | 4.0 | 1.0 | 0.00 | 0.00 | 0.00 | 87 | 1013.9 |
| 20260905052019 | 71 | 66 | 4.0 | 8.0 | 0.00 | 0.00 | 0.00 | 87 | 1014.8 |
| 20260905051539 | 71 | 68 | 3.0 | 7.0 | 0.00 | 0.00 | 0.00 | 87 | 1014.9 |
| 20260905051511 | 71 | 68 | 2.0 | 1.0 | 0.00 | 0.00 | 0.00 | 86 | 1014.0 |
| 20260905051018 | 71 | 65 | 3.0 | 5.0 | 0.00 | 0.00 | 0.00 | 87 | 1014.8 |
| 20260905051011 | 71 | 68 | 4.0 | 0.0 | 0.00 | 0.00 | 0.00 | 87 | 1014.0 |
| 20260905050522 | 71 | 53 | 2.0 | 4.0 | 0.00 | 0.00 | 0.00 | 86 | 1014.9 |
| 20260905050511 | 71 | 53 | 1.0 | 0.0 | 0.00 | 0.00 | 0.00 | 86 | 1014.0 |
| 20260905050047 | 71 | 34 | 1.0 | 8.0 | 0.00 | 0.00 | 0.00 | 86 | 1014.9 |
| 20260905050011 | 72 | 34 | 2.0 | 1.0 | 0.00 | 0.00 | 0.00 | 85 | 1014.0 |
| 20260905045518 | 71 | 54 | 3.0 | 8.0 | 0.00 | 0.00 | 0.00 | 86 | 1014.8 |
| 20260905045511 | 72 | 54 | 3.0 | 1.0 | 0.00 | 0.00 | 0.00 | 86 | 1013.9 |
| 20260905045018 | 71 | 5 | 2.0 | 5.0 | 0.00 | 0.00 | 0.00 | 86 | 1014.9 |
| 20260905045011 | 72 | 3 | 4.0 | 0.0 | 0.00 | 0.00 | 0.00 | 86 | 1013.9 |
| 20260905044541 | 71 | 39 | 2.0 | 5.0 | 0.00 | 0.00 | 0.00 | 86 | 1015.0 |
| 20260905044511 | 72 | 39 | 2.0 | 0.0 | 0.00 | 0.00 | 0.00 | 86 | 1014.0 |
| 20260905044024 | 72 | 75 | 2.0 | 5.0 | 0.00 | 0.00 | 0.00 | 86 | 1014.9 |
| 20260905044011 | 72 | 75 | 2.0 | 0.0 | 0.00 | 0.00 | 0.00 | 85 | 1014.0 |
| 20260905043524 | 72 | 61 | 2.0 | 7.0 | 0.00 | 0.00 | 0.00 | 86 | 1014.9 |
| 20260905043511 | 72 | 61 | 2.0 | 1.0 | 0.00 | 0.00 | 0.00 | 86 | 1013.9 |
| 20260905043042 | 72 | 65 | 3.0 | 7.0 | 0.00 | 0.00 | 0.00 | 86 | 1014.8 |
| 20260905043011 | 72 | 65 | 2.0 | 1.0 | 0.00 | 0.00 | 0.00 | 85 | 1013.8 |
| 20260905042521 | 72 | 66 | 2.0 | 6.0 | 0.00 | 0.00 | 0.00 | 86 | 1014.7 |
| 20260905042511 | 72 | 64 | 0.0 | 1.0 | 0.00 | 0.00 | 0.00 | 85 | 1013.7 |
| 20260905042021 | 72 | 57 | 2.0 | 4.0 | 0.00 | 0.00 | 0.00 | 86 | 1014.7 |
| 20260905042011 | 72 | 55 | 2.0 | 0.0 | 0.00 | 0.00 | 0.00 | 85 | 1013.7 |
| 20260905041544 | 72 | 72 | 2.0 | 4.0 | 0.00 | 0.00 | 0.00 | 86 | 1014.8 |
| 20260905041511 | 73 | 71 | 0.0 | 0.0 | 0.00 | 0.00 | 0.00 | 85 | 1013.7 |
| 20260905041020 | 72 | 124 | 1.0 | 6.0 | 0.00 | 0.00 | 0.00 | 85 | 1014.9 |
| 20260905041011 | 73 | 124 | 2.0 | 0.0 | 0.00 | 0.00 | 0.00 | 84 | 1013.8 |
| 20260905040518 | 73 | 0 | 1.0 | 6.0 | 0.00 | 0.00 | 0.00 | 84 | 1014.9 |
| 20260905040511 | 73 | 3 | 0.0 | 1.0 | 0.00 | 0.00 | 0.00 | 84 | 1013.8 |
| 20260905040038 | 73 | 0 | 1.0 | 7.0 | 0.00 | 0.00 | 0.00 | 84 | 1014.8 |
| 20260905040011 | 73 | 12 | 1.0 | 0.0 | 0.00 | 0.00 | 0.00 | 84 | 1013.8 |
| 20260905035520 | 73 | 33 | 2.0 | 7.0 | 0.00 | 0.00 | 0.00 | 84 | 1014.8 |
| 20260905035511 | 73 | 36 | 3.0 | 1.0 | 0.00 | 0.00 | 0.00 | 83 | 1013.8 |
| 20260905035023 | 73 | 334 | 2.0 | 7.0 | 0.00 | 0.00 | 0.00 | 83 | 1014.8 |
| 20260905035011 | 74 | 334 | 2.0 | 1.0 | 0.00 | 0.00 | 0.00 | 83 | 1013.8 |
| 20260905034545 | 73 | 58 | 2.0 | 6.0 | 0.00 | 0.00 | 0.00 | 83 | 1014.8 |
| 20260905034018 | 73 | 0 | 2.0 | 8.0 | 0.00 | 0.00 | 0.00 | 83 | 1014.8 |
| 20260905034011 | 74 | 60 | 1.0 | 1.0 | 0.00 | 0.00 | 0.00 | 83 | 1013.8 |
| 20260905033521 | 74 | 72 | 2.0 | 8.0 | 0.00 | 0.00 | 0.00 | 83 | 1014.7 |
| 20260905033512 | 74 | 72 | 3.0 | 1.0 | 0.00 | 0.00 | 0.00 | 83 | 1013.8 |
| 20260905033038 | 74 | 55 | 2.0 | 6.0 | 0.00 | 0.00 | 0.00 | 83 | 1014.7 |
| 20260905032519 | 74 | 64 | 1.0 | 6.0 | 0.00 | 0.00 | 0.00 | 83 | 1014.7 |
| 20260905032020 | 74 | 64 | 2.0 | 11.0 | 0.00 | 0.00 | 0.00 | 83 | 1014.6 |
| 20260905031538 | 74 | 38 | 2.0 | 11.0 | 0.00 | 0.00 | 0.00 | 83 | 1014.6 |
| 20260905031020 | 75 | 39 | 1.0 | 6.0 | 0.00 | 0.00 | 0.00 | 83 | 1014.6 |
| 20260905030520 | 75 | 60 | 3.0 | 6.0 | 0.00 | 0.00 | 0.00 | 83 | 1014.5 |
| 20260905030041 | 75 | 68 | 2.0 | 8.0 | 0.00 | 0.00 | 0.00 | 82 | 1014.5 |
| 20260905025519 | 75 | 41 | 3.0 | 8.0 | 0.00 | 0.00 | 0.00 | 82 | 1014.4 |
| 20260905025023 | 75 | 55 | 1.0 | 6.0 | 0.00 | 0.00 | 0.00 | 82 | 1014.4 |
| 20260905024543 | 75 | 56 | 2.0 | 6.0 | 0.00 | 0.00 | 0.00 | 81 | 1014.3 |
| 20260905024024 | 76 | 53 | 2.0 | 5.0 | 0.00 | 0.00 | 0.00 | 82 | 1014.3 |
| 20260905023519 | 76 | 66 | 1.0 | 5.0 | 0.00 | 0.00 | 0.00 | 82 | 1014.3 |
| 20260905023043 | 76 | 42 | 1.0 | 5.0 | 0.00 | 0.00 | 0.00 | 81 | 1014.3 |
| 20260905022520 | 76 | 68 | 2.0 | 6.0 | 0.00 | 0.00 | 0.00 | 81 | 1014.2 |
| 20260905022019 | 76 | 34 | 1.0 | 6.0 | 0.00 | 0.00 | 0.00 | 80 | 1014.1 |
| 20260905021541 | 77 | 53 | 1.0 | 6.0 | 0.00 | 0.00 | 0.00 | 79 | 1014.2 |
| 20260905021018 | 77 | 50 | 2.0 | 8.0 | 0.00 | 0.00 | 0.00 | 79 | 1014.1 |
| 20260905020522 | 77 | 339 | 2.0 | 8.0 | 0.00 | 0.00 | 0.00 | 78 | 1013.9 |
| 20260905020055 | 77 | 342 | 2.0 | 10.0 | 0.00 | 0.00 | 0.00 | 78 | 1013.9 |
| 20260905015517 | 77 | 33 | 2.0 | 10.0 | 0.00 | 0.00 | 0.00 | 78 | 1013.8 |
| 20260905015021 | 77 | 10 | 2.0 | 7.0 | 0.00 | 0.00 | 0.00 | 78 | 1013.9 |
| 20260905014539 | 78 | 15 | 2.0 | 8.0 | 0.00 | 0.00 | 0.00 | 78 | 1013.9 |
| 20260905014021 | 78 | 350 | 3.0 | 8.0 | 0.00 | 0.00 | 0.00 | 78 | 1013.8 |
| 20260905013519 | 78 | 7 | 2.0 | 8.0 | 0.00 | 0.00 | 0.00 | 78 | 1013.7 |
| 20260905013043 | 78 | 16 | 2.0 | 8.0 | 0.00 | 0.00 | 0.00 | 77 | 1013.5 |
| 20260905012519 | 78 | 43 | 2.0 | 7.0 | 0.00 | 0.00 | 0.00 | 77 | 1013.5 |
| 20260905012020 | 79 | 4 | 2.0 | 9.0 | 0.00 | 0.00 | 0.00 | 76 | 1013.5 |
| 20260905011540 | 79 | 23 | 3.0 | 9.0 | 0.00 | 0.00 | 0.00 | 76 | 1013.4 |
| 20260905011018 | 79 | 3 | 1.0 | 5.0 | 0.00 | 0.00 | 0.00 | 75 | 1013.3 |
| 20260905010518 | 79 | 350 | 1.0 | 5.0 | 0.00 | 0.00 | 0.00 | 75 | 1013.2 |
| 20260905010041 | 79 | 26 | 1.0 | 8.0 | 0.00 | 0.00 | 0.00 | 75 | 1013.1 |
| 20260905005525 | 80 | 0 | 0.0 | 8.0 | 0.00 | 0.00 | 0.00 | 74 | 1013.1 |
| 20260905005023 | 80 | 342 | 2.0 | 8.0 | 0.00 | 0.00 | 0.00 | 73 | 1013.0 |
| 20260905004606 | 80 | 11 | 2.0 | 6.0 | 0.00 | 0.00 | 0.00 | 72 | 1013.0 |
| 20260905004023 | 80 | 14 | 2.0 | 10.0 | 0.00 | 0.00 | 0.00 | 72 | 1012.9 |
| 20260905003519 | 81 | 5 | 1.0 | 10.0 | 0.00 | 0.00 | 0.00 | 72 | 1013.0 |
| 20260905003043 | 81 | 42 | 2.0 | 10.0 | 0.00 | 0.00 | 0.00 | 72 | 1012.9 |
| 20260905002524 | 81 | 32 | 2.0 | 8.0 | 0.00 | 0.00 | 0.00 | 72 | 1012.9 |
| 20260905002022 | 81 | 330 | 2.0 | 9.0 | 0.00 | 0.00 | 0.00 | 71 | 1012.9 |
| 20260905001542 | 82 | 2 | 2.0 | 9.0 | 0.00 | 0.00 | 0.00 | 71 | 1012.8 |
| 20260905001023 | 82 | 45 | 2.0 | 9.0 | 0.00 | 0.00 | 0.00 | 71 | 1012.9 |
| 20260905000520 | 82 | 28 | 1.0 | 9.0 | 0.00 | 0.00 | 0.00 | 71 | 1012.8 |
| 20260905000042 | 82 | 0 | 1.0 | 7.0 | 0.00 | 0.00 | 0.00 | 72 | 1012.8 |
| 20260904235518 | 82 | 20 | 2.0 | 8.0 | 0.00 | 0.00 | 0.00 | 72 | 1012.8 |
| 20260904235027 | 82 | 17 | 2.0 | 8.0 | 0.00 | 0.00 | 0.00 | 72 | 1012.7 |
| 20260904234538 | 82 | 19 | 2.0 | 8.0 | 0.00 | 0.00 | 0.00 | 72 | 1012.7 |
| 20260904234023 | 83 | 17 | 3.0 | 9.0 | 0.00 | 0.00 | 0.00 | 72 | 1012.7 |
| 20260904233524 | 83 | 23 | 2.0 | 9.0 | 0.00 | 0.00 | 0.00 | 72 | 1012.5 |
| 20260904233050 | 83 | 20 | 2.0 | 8.0 | 0.00 | 0.00 | 0.00 | 73 | 1012.5 |
| 20260904232525 | 83 | 359 | 2.0 | 8.0 | 0.00 | 0.00 | 0.00 | 73 | 1012.5 |
| 20260904232021 | 84 | 355 | 2.0 | 8.0 | 0.00 | 0.00 | 0.00 | 73 | 1012.5 |
| 20260904231539 | 84 | 34 | 3.0 | 10.0 | 0.00 | 0.00 | 0.00 | 73 | 1012.5 |
| 20260904231020 | 83 | 1 | 1.0 | 10.0 | 0.00 | 0.00 | 0.00 | 76 | 1012.4 |
| 20260904230522 | 83 | 355 | 3.0 | 10.0 | 0.00 | 0.00 | 0.00 | 75 | 1012.3 |
| 20260904230042 | 83 | 24 | 1.0 | 9.0 | 0.00 | 0.00 | 0.00 | 75 | 1012.3 |
| 20260904225520 | 83 | 328 | 4.0 | 9.0 | 0.00 | 0.00 | 0.00 | 76 | 1012.3 |
| 20260904225020 | 83 | 32 | 2.0 | 8.0 | 0.00 | 0.00 | 0.00 | 77 | 1012.2 |
| 20260904224540 | 83 | 316 | 3.0 | 8.0 | 0.00 | 0.00 | 0.00 | 77 | 1012.2 |
| 20260904224018 | 83 | 32 | 1.0 | 7.0 | 0.00 | 0.00 | 0.00 | 78 | 1012.1 |
| 20260904223524 | 83 | 47 | 2.0 | 6.0 | 0.00 | 0.00 | 0.00 | 78 | 1012.0 |
| 20260904223043 | 83 | 35 | 2.0 | 4.0 | 0.00 | 0.00 | 0.00 | 78 | 1012.0 |
| 20260904222522 | 83 | 40 | 1.0 | 6.0 | 0.00 | 0.00 | 0.00 | 79 | 1011.9 |
| 20260904222021 | 83 | 359 | 2.0 | 6.0 | 0.00 | 0.00 | 0.00 | 80 | 1011.9 |
| 20260904221541 | 83 | 25 | 2.0 | 4.0 | 0.00 | 0.00 | 0.00 | 80 | 1011.9 |
| 20260904221021 | 83 | 0 | 1.0 | 3.0 | 0.00 | 0.00 | 0.00 | 80 | 1011.9 |
| 20260904220520 | 82 | 0 | 0.0 | 4.0 | 0.00 | 0.00 | 0.00 | 82 | 1011.8 |
| 20260904220047 | 82 | 72 | 1.0 | 4.0 | 0.00 | 0.00 | 0.00 | 81 | 1011.7 |
| 20260904215525 | 82 | 74 | 1.0 | 4.0 | 0.00 | 0.01 | 0.00 | 82 | 1011.7 |
| 20260904215031 | 82 | 74 | 1.0 | 5.0 | 0.00 | 0.01 | 0.00 | 82 | 1011.6 |
| 20260904214543 | 82 | 74 | 2.0 | 5.0 | 0.00 | 0.01 | 0.00 | 81 | 1011.7 |
| 20260904214021 | 82 | 72 | 2.0 | 5.0 | 0.00 | 0.01 | 0.00 | 80 | 1011.7 |
| 20260904213521 | 82 | 71 | 1.0 | 10.0 | 0.00 | 0.01 | 0.00 | 82 | 1011.7 |
| 20260904213043 | 82 | 71 | 2.0 | 10.0 | 0.00 | 0.01 | 0.00 | 81 | 1011.7 |
| 20260904212519 | 82 | 67 | 2.0 | 4.0 | 0.00 | 0.01 | 0.00 | 81 | 1011.7 |
| 20260904212020 | 82 | 70 | 2.0 | 4.0 | 0.00 | 0.01 | 0.00 | 81 | 1011.7 |
| 20260904211542 | 83 | 66 | 2.0 | 5.0 | 0.00 | 0.01 | 0.00 | 80 | 1011.8 |
| 20260904211025 | 83 | 67 | 1.0 | 5.0 | 0.00 | 0.01 | 0.00 | 81 | 1011.7 |
| 20260904210520 | 83 | 66 | 2.0 | 5.0 | 0.00 | 0.01 | 0.00 | 81 | 1011.6 |
| 20260904210049 | 83 | 68 | 2.0 | 4.0 | 0.00 | 0.01 | 0.00 | 81 | 1011.7 |
| 20260904205523 | 83 | 70 | 2.0 | 5.0 | 0.00 | 0.01 | 0.00 | 81 | 1011.8 |
| 20260904205023 | 83 | 69 | 2.0 | 6.0 | 0.00 | 0.01 | 0.00 | 80 | 1011.7 |
| 20260904204541 | 83 | 57 | 1.0 | 6.0 | 0.00 | 0.01 | 0.00 | 81 | 1011.8 |
| 20260904204511 | 83 | 57 | 2.0 | 0.0 | 0.00 | 0.01 | 0.00 | 80 | 1010.9 |
| 20260904204025 | 83 | 74 | 2.0 | 4.0 | 0.00 | 0.01 | 0.00 | 80 | 1011.8 |
| 20260904204010 | 83 | 74 | 3.0 | 0.0 | 0.00 | 0.01 | 0.00 | 79 | 1010.9 |
| 20260904203523 | 83 | 70 | 2.0 | 4.0 | 0.00 | 0.01 | 0.00 | 80 | 1011.8 |
| 20260904203043 | 83 | 73 | 2.0 | 4.0 | 0.00 | 0.01 | 0.00 | 80 | 1011.8 |
| 20260904203011 | 84 | 73 | 1.0 | 0.0 | 0.00 | 0.01 | 0.00 | 80 | 1010.9 |
| 20260904202519 | 83 | 78 | 2.0 | 5.0 | 0.00 | 0.01 | 0.00 | 79 | 1011.8 |
| 20260904202021 | 83 | 49 | 2.0 | 5.0 | 0.00 | 0.01 | 0.00 | 79 | 1011.7 |
| 20260904202011 | 84 | 49 | 3.0 | 0.0 | 0.00 | 0.01 | 0.00 | 78 | 1010.9 |
| 20260904201543 | 83 | 79 | 2.0 | 4.0 | 0.00 | 0.01 | 0.00 | 78 | 1011.8 |
| 20260904201511 | 84 | 86 | 3.0 | 0.0 | 0.00 | 0.01 | 0.00 | 77 | 1010.8 |
| 20260904201021 | 83 | 37 | 0.0 | 4.0 | 0.00 | 0.01 | 0.00 | 79 | 1011.8 |
| 20260904201011 | 84 | 37 | 3.0 | 0.0 | 0.00 | 0.01 | 0.00 | 78 | 1010.9 |
| 20260904200522 | 84 | 43 | 1.0 | 4.0 | 0.00 | 0.01 | 0.00 | 80 | 1011.9 |
| 20260904200510 | 84 | 43 | 2.0 | 0.0 | 0.00 | 0.01 | 0.00 | 80 | 1011.0 |
| 20260904200041 | 84 | 40 | 1.0 | 5.0 | 0.00 | 0.01 | 0.00 | 79 | 1012.0 |
| 20260904200011 | 84 | 40 | 1.0 | 0.0 | 0.00 | 0.01 | 0.00 | 79 | 1011.0 |
| 20260904195522 | 84 | 39 | 1.0 | 5.0 | 0.00 | 0.01 | 0.00 | 79 | 1011.9 |
| 20260904195511 | 84 | 39 | 2.0 | 0.0 | 0.00 | 0.01 | 0.00 | 78 | 1011.0 |
| 20260904195017 | 84 | 26 | 1.0 | 4.0 | 0.00 | 0.01 | 0.00 | 78 | 1012.0 |
| 20260904194544 | 84 | 4 | 1.0 | 4.0 | 0.00 | 0.01 | 0.00 | 78 | 1012.0 |
| 20260904194511 | 85 | 4 | 1.0 | 0.0 | 0.00 | 0.01 | 0.00 | 78 | 1011.1 |
| 20260904194025 | 84 | 0 | 1.0 | 4.0 | 0.00 | 0.01 | 0.00 | 77 | 1012.0 |
| 20260904194011 | 85 | 45 | 0.0 | 0.0 | 0.00 | 0.01 | 0.00 | 77 | 1011.1 |
| 20260904193524 | 85 | 47 | 1.0 | 4.0 | 0.00 | 0.01 | 0.00 | 77 | 1011.9 |
| 20260904193511 | 85 | 47 | 1.0 | 0.0 | 0.00 | 0.01 | 0.00 | 76 | 1011.1 |
| 20260904193046 | 85 | 16 | 1.0 | 4.0 | 0.00 | 0.01 | 0.00 | 77 | 1012.0 |
| 20260904193010 | 85 | 16 | 1.0 | 0.0 | 0.00 | 0.01 | 0.00 | 77 | 1011.1 |
| 20260904192520 | 85 | 14 | 2.0 | 6.0 | 0.00 | 0.01 | 0.00 | 76 | 1011.9 |
| 20260904192510 | 85 | 14 | 3.0 | 1.0 | 0.00 | 0.01 | 0.00 | 76 | 1011.1 |
| 20260904192018 | 85 | 16 | 2.0 | 6.0 | 0.00 | 0.01 | 0.00 | 76 | 1012.0 |
| 20260904192010 | 85 | 16 | 2.0 | 1.0 | 0.00 | 0.01 | 0.00 | 75 | 1011.2 |
| 20260904191542 | 85 | 27 | 2.0 | 5.0 | 0.00 | 0.01 | 0.00 | 76 | 1012.1 |
| 20260904191511 | 86 | 27 | 4.0 | 0.0 | 0.00 | 0.01 | 0.00 | 76 | 1011.2 |
| 20260904191020 | 85 | 45 | 2.0 | 5.0 | 0.00 | 0.01 | 0.00 | 77 | 1012.2 |
| 20260904191011 | 86 | 45 | 2.0 | 0.0 | 0.00 | 0.01 | 0.00 | 76 | 1011.3 |
| 20260904190520 | 85 | 53 | 2.0 | 6.0 | 0.00 | 0.01 | 0.00 | 76 | 1012.2 |
| 20260904190511 | 86 | 52 | 2.0 | 1.0 | 0.00 | 0.01 | 0.00 | 76 | 1011.3 |
| 20260904190047 | 85 | 44 | 3.0 | 6.0 | 0.00 | 0.01 | 0.00 | 77 | 1012.2 |
| 20260904190011 | 86 | 44 | 2.0 | 1.0 | 0.00 | 0.01 | 0.00 | 76 | 1011.3 |
| 20260904185520 | 85 | 45 | 2.0 | 6.0 | 0.00 | 0.01 | 0.00 | 76 | 1012.2 |
| 20260904185511 | 86 | 45 | 1.0 | 1.0 | 0.00 | 0.01 | 0.00 | 75 | 1011.3 |
| 20260904185025 | 85 | 26 | 2.0 | 6.0 | 0.00 | 0.01 | 0.00 | 76 | 1012.2 |
| 20260904185010 | 86 | 25 | 2.0 | 1.0 | 0.00 | 0.01 | 0.00 | 77 | 1011.3 |
| 20260904184539 | 85 | 63 | 2.0 | 6.0 | 0.00 | 0.01 | 0.00 | 76 | 1012.2 |
| 20260904184511 | 85 | 63 | 3.0 | 1.0 | 0.00 | 0.01 | 0.00 | 76 | 1011.3 |
| 20260904184025 | 85 | 22 | 3.0 | 8.0 | 0.00 | 0.01 | 0.00 | 77 | 1012.2 |
| 20260904184010 | 85 | 16 | 4.0 | 1.0 | 0.00 | 0.01 | 0.00 | 75 | 1011.3 |
| 20260904183519 | 85 | 80 | 3.0 | 9.0 | 0.00 | 0.01 | 0.00 | 75 | 1012.2 |
| 20260904183511 | 85 | 65 | 3.0 | 1.0 | 0.00 | 0.01 | 0.00 | 75 | 1011.2 |
| 20260904183042 | 85 | 0 | 3.0 | 9.0 | 0.00 | 0.01 | 0.00 | 77 | 1012.2 |
| 20260904183011 | 85 | 18 | 1.0 | 1.0 | 0.00 | 0.01 | 0.00 | 76 | 1011.3 |
| 20260904182524 | 85 | 4 | 2.0 | 8.0 | 0.00 | 0.01 | 0.00 | 77 | 1012.2 |
| 20260904182511 | 85 | 4 | 1.0 | 1.0 | 0.00 | 0.01 | 0.00 | 76 | 1011.3 |
| 20260904182028 | 85 | 7 | 2.0 | 9.0 | 0.00 | 0.01 | 0.00 | 76 | 1012.2 |
| 20260904182011 | 85 | 3 | 3.0 | 1.0 | 0.00 | 0.01 | 0.00 | 76 | 1011.3 |
| 20260904181546 | 85 | 28 | 2.0 | 9.0 | 0.00 | 0.01 | 0.00 | 77 | 1012.1 |
| 20260904181511 | 86 | 16 | 3.0 | 1.0 | 0.00 | 0.01 | 0.00 | 76 | 1011.2 |
| 20260904181019 | 85 | 334 | 4.0 | 9.0 | 0.00 | 0.01 | 0.00 | 73 | 1012.0 |
| 20260904181011 | 86 | 23 | 4.0 | 1.0 | 0.00 | 0.01 | 0.00 | 72 | 1011.2 |
| 20260904180520 | 86 | 50 | 3.0 | 10.0 | 0.00 | 0.01 | 0.00 | 74 | 1012.1 |
| 20260904180511 | 86 | 49 | 5.0 | 1.0 | 0.00 | 0.01 | 0.00 | 74 | 1011.2 |
| 20260904180039 | 86 | 12 | 2.0 | 10.0 | 0.00 | 0.01 | 0.00 | 76 | 1012.0 |
| 20260904180010 | 86 | 12 | 1.0 | 1.0 | 0.00 | 0.01 | 0.00 | 76 | 1011.1 |
| 20260904175527 | 86 | 3 | 3.0 | 11.0 | 0.00 | 0.01 | 0.00 | 75 | 1012.0 |
| 20260904175511 | 86 | 36 | 4.0 | 1.0 | 0.00 | 0.01 | 0.00 | 75 | 1011.1 |
| 20260904175024 | 86 | 86 | 3.0 | 11.0 | 0.00 | 0.01 | 0.00 | 75 | 1012.0 |
| 20260904175011 | 86 | 264 | 3.0 | 1.0 | 0.00 | 0.01 | 0.00 | 75 | 1011.1 |
| 20260904174547 | 86 | 359 | 3.0 | 7.0 | 0.00 | 0.01 | 0.00 | 77 | 1011.7 |
| 20260904174024 | 86 | 24 | 3.0 | 9.0 | 0.00 | 0.01 | 0.00 | 75 | 1011.7 |
| 20260904174011 | 86 | 31 | 3.0 | 1.0 | 0.00 | 0.01 | 0.00 | 77 | 1010.8 |
| 20260904173519 | 86 | 31 | 3.0 | 9.0 | 0.00 | 0.01 | 0.00 | 77 | 1011.7 |
| 20260904173511 | 86 | 32 | 2.0 | 1.0 | 0.00 | 0.01 | 0.00 | 77 | 1010.7 |
| 20260904173052 | 86 | 47 | 2.0 | 8.0 | 0.00 | 0.01 | 0.00 | 79 | 1011.8 |
| 20260904173011 | 86 | 77 | 1.0 | 1.0 | 0.00 | 0.01 | 0.00 | 78 | 1010.8 |
| 20260904172518 | 85 | 28 | 2.0 | 8.0 | 0.00 | 0.01 | 0.00 | 78 | 1011.6 |
| 20260904172019 | 85 | 34 | 2.0 | 11.0 | 0.00 | 0.01 | 0.00 | 78 | 1011.7 |
| 20260904172011 | 86 | 36 | 2.0 | 1.0 | 0.00 | 0.01 | 0.00 | 78 | 1010.8 |
| 20260904171554 | 85 | 53 | 2.0 | 11.0 | 0.00 | 0.01 | 0.00 | 78 | 1011.7 |
| 20260904171511 | 85 | 53 | 2.0 | 1.0 | 0.00 | 0.01 | 0.00 | 78 | 1010.8 |
| 20260904171019 | 85 | 28 | 3.0 | 11.0 | 0.00 | 0.01 | 0.00 | 77 | 1011.7 |
| 20260904171011 | 85 | 28 | 4.0 | 1.0 | 0.00 | 0.01 | 0.00 | 76 | 1010.8 |
| 20260904170520 | 85 | 33 | 2.0 | 5.0 | 0.00 | 0.01 | 0.00 | 79 | 1011.7 |
| 20260904170042 | 85 | 70 | 2.0 | 5.0 | 0.00 | 0.01 | 0.00 | 79 | 1011.7 |
| 20260904170011 | 86 | 70 | 2.0 | 0.0 | 0.00 | 0.01 | 0.00 | 78 | 1010.7 |
| 20260904165528 | 86 | 43 | 2.0 | 4.0 | 0.00 | 0.01 | 0.00 | 78 | 1011.6 |
| 20260904165025 | 86 | 41 | 2.0 | 5.0 | 0.00 | 0.01 | 0.00 | 78 | 1011.7 |
| 20260904164542 | 86 | 43 | 2.0 | 5.0 | 0.00 | 0.01 | 0.00 | 77 | 1011.6 |
| 20260904164025 | 86 | 18 | 2.0 | 6.0 | 0.00 | 0.01 | 0.00 | 77 | 1011.7 |
| 20260904164011 | 87 | 18 | 4.0 | 0.0 | 0.00 | 0.01 | 0.00 | 76 | 1010.7 |
| 20260904163525 | 87 | 36 | 2.0 | 6.0 | 0.00 | 0.01 | 0.00 | 77 | 1011.6 |
| 20260904163511 | 87 | 35 | 2.0 | 1.0 | 0.00 | 0.01 | 0.00 | 77 | 1010.7 |
| 20260904163044 | 87 | 124 | 2.0 | 6.0 | 0.00 | 0.01 | 0.00 | 77 | 1011.5 |
| 20260904163011 | 87 | 124 | 3.0 | 1.0 | 0.00 | 0.01 | 0.00 | 76 | 1010.5 |
| 20260904162520 | 87 | 34 | 1.0 | 4.0 | 0.00 | 0.01 | 0.00 | 79 | 1011.5 |
| 20260904162511 | 87 | 35 | 2.0 | 0.0 | 0.00 | 0.01 | 0.00 | 78 | 1010.5 |
| 20260904162019 | 87 | 0 | 1.0 | 4.0 | 0.00 | 0.01 | 0.00 | 78 | 1011.5 |
| 20260904161540 | 87 | 31 | 2.0 | 3.0 | 0.00 | 0.01 | 0.00 | 77 | 1011.5 |
| 20260904161511 | 87 | 31 | 2.0 | 0.0 | 0.00 | 0.01 | 0.00 | 77 | 1010.4 |
| 20260904161020 | 86 | 20 | 2.0 | 4.0 | 0.00 | 0.01 | 0.00 | 77 | 1011.3 |
| 20260904161011 | 87 | 20 | 2.0 | 0.0 | 0.00 | 0.01 | 0.00 | 76 | 1010.3 |
| 20260904160520 | 86 | 334 | 1.0 | 4.0 | 0.00 | 0.01 | 0.00 | 79 | 1011.3 |
| 20260904160511 | 87 | 334 | 2.0 | 0.0 | 0.00 | 0.01 | 0.00 | 79 | 1010.3 |
| 20260904160038 | 86 | 331 | 1.0 | 4.0 | 0.00 | 0.01 | 0.00 | 78 | 1011.2 |
| 20260904160011 | 86 | 331 | 1.0 | 0.0 | 0.00 | 0.01 | 0.00 | 76 | 1010.2 |
| 20260904155519 | 86 | 66 | 1.0 | 4.0 | 0.00 | 0.01 | 0.00 | 77 | 1011.3 |
| 20260904155019 | 85 | 75 | 1.0 | 4.0 | 0.00 | 0.01 | 0.00 | 78 | 1011.3 |
| 20260904155011 | 86 | 75 | 2.0 | 0.0 | 0.00 | 0.01 | 0.00 | 77 | 1010.2 |
| 20260904154545 | 85 | 77 | 3.0 | 5.0 | 0.00 | 0.01 | 0.00 | 77 | 1011.2 |
| 20260904154021 | 85 | 80 | 2.0 | 5.0 | 0.00 | 0.01 | 0.00 | 77 | 1011.2 |
| 20260904154011 | 86 | 80 | 3.0 | 0.0 | 0.00 | 0.01 | 0.00 | 76 | 1010.2 |
| 20260904153524 | 85 | 25 | 1.0 | 4.0 | 0.00 | 0.01 | 0.00 | 79 | 1011.1 |
| 20260904153511 | 86 | 22 | 2.0 | 0.0 | 0.00 | 0.01 | 0.00 | 79 | 1010.1 |
| 20260904153046 | 85 | 317 | 2.0 | 4.0 | 0.00 | 0.01 | 0.00 | 76 | 1011.0 |
| 20260904152519 | 85 | 230 | 1.0 | 4.0 | 0.00 | 0.01 | 0.00 | 76 | 1010.9 |
| 20260904152511 | 85 | 230 | 4.0 | 0.0 | 0.00 | 0.01 | 0.00 | 75 | 1009.9 |
| 20260904152019 | 85 | 0 | 0.0 | 3.0 | 0.00 | 0.01 | 0.00 | 80 | 1010.8 |
| 20260904152011 | 85 | 74 | 0.0 | 0.0 | 0.00 | 0.01 | 0.00 | 79 | 1009.8 |
| 20260904151543 | 84 | 0 | 0.0 | 4.0 | 0.00 | 0.01 | 0.00 | 80 | 1010.7 |
| 20260904151511 | 85 | 73 | 0.0 | 0.0 | 0.00 | 0.01 | 0.00 | 79 | 1009.8 |
| 20260904151019 | 84 | 74 | 1.0 | 4.0 | 0.00 | 0.01 | 0.00 | 79 | 1010.7 |
| 20260904151011 | 84 | 74 | 0.0 | 0.0 | 0.00 | 0.01 | 0.00 | 79 | 1009.9 |
| 20260904150525 | 84 | 74 | 2.0 | 4.0 | 0.00 | 0.01 | 0.00 | 81 | 1010.7 |
| 20260904150511 | 84 | 74 | 2.0 | 0.0 | 0.00 | 0.01 | 0.00 | 81 | 1009.8 |
| 20260904150043 | 83 | 76 | 2.0 | 4.0 | 0.00 | 0.01 | 0.00 | 82 | 1010.7 |
| 20260904150011 | 84 | 76 | 2.0 | 0.0 | 0.00 | 0.01 | 0.00 | 81 | 1009.8 |
| 20260904145524 | 83 | 77 | 2.0 | 4.0 | 0.00 | 0.01 | 0.00 | 81 | 1010.8 |
| 20260904145511 | 83 | 77 | 2.0 | 0.0 | 0.00 | 0.01 | 0.00 | 81 | 1009.9 |
| 20260904145024 | 82 | 79 | 2.0 | 4.0 | 0.00 | 0.01 | 0.00 | 82 | 1010.7 |
| 20260904145011 | 83 | 79 | 3.0 | 0.0 | 0.00 | 0.01 | 0.00 | 81 | 1009.8 |
| 20260904144544 | 82 | 80 | 2.0 | 5.0 | 0.00 | 0.01 | 0.00 | 81 | 1010.6 |
| 20260904144511 | 82 | 80 | 2.0 | 0.0 | 0.00 | 0.01 | 0.00 | 81 | 1009.8 |
| 20260904144018 | 81 | 77 | 2.0 | 5.0 | 0.00 | 0.01 | 0.00 | 83 | 1010.7 |
| 20260904144011 | 82 | 77 | 3.0 | 0.0 | 0.00 | 0.01 | 0.00 | 82 | 1009.9 |
| 20260904143521 | 81 | 72 | 2.0 | 4.0 | 0.00 | 0.01 | 0.00 | 85 | 1010.8 |
| 20260904143511 | 81 | 72 | 3.0 | 0.0 | 0.00 | 0.01 | 0.00 | 84 | 1009.9 |
| 20260904143040 | 80 | 60 | 1.0 | 6.0 | 0.00 | 0.01 | 0.00 | 86 | 1010.7 |
| 20260904143011 | 81 | 60 | 3.0 | 1.0 | 0.00 | 0.01 | 0.00 | 85 | 1009.9 |
| 20260904142521 | 80 | 79 | 3.0 | 6.0 | 0.00 | 0.01 | 0.00 | 85 | 1010.8 |
| 20260904142511 | 80 | 79 | 3.0 | 1.0 | 0.00 | 0.01 | 0.00 | 85 | 1009.9 |
| 20260904142019 | 79 | 78 | 3.0 | 6.0 | 0.00 | 0.01 | 0.00 | 86 | 1010.8 |
| 20260904142011 | 80 | 78 | 3.0 | 1.0 | 0.00 | 0.01 | 0.00 | 86 | 1010.0 |
| 20260904141545 | 79 | 74 | 3.0 | 6.0 | 0.00 | 0.01 | 0.00 | 87 | 1010.8 |
| 20260904141511 | 79 | 74 | 3.0 | 1.0 | 0.00 | 0.01 | 0.00 | 87 | 1009.9 |
| 20260904141023 | 78 | 76 | 3.0 | 4.0 | 0.00 | 0.01 | 0.00 | 88 | 1010.8 |
| 20260904140526 | 78 | 73 | 2.0 | 4.0 | 0.00 | 0.01 | 0.00 | 89 | 1010.9 |
| 20260904140511 | 78 | 73 | 3.0 | 0.0 | 0.00 | 0.01 | 0.00 | 88 | 1010.0 |
| 20260904140046 | 77 | 69 | 2.0 | 4.0 | 0.00 | 0.01 | 0.00 | 89 | 1011.0 |
| 20260904140011 | 78 | 69 | 3.0 | 0.0 | 0.00 | 0.01 | 0.00 | 89 | 1010.1 |